Regional Weather Roundup
Issued by NWS

Home | Current Version | Previous Version | Text Only | Print | Product List | Glossary On
Versions: 1 2 3 4 5 6 7 8 9 10 11 12 13 14 15 16 17 18 19 20 21 22 23 24 25 26 27 28 29 30 31 32 33 34 35 36 37 38 39 40 41 42 43 44 45 46 47 48 49 50
000
ASUS43 KDTX 020710
RWRMI
MICHIGAN HOURLY REGIONAL WEATHER ROUNDUP
NATIONAL WEATHER SERVICE DETROIT/PONTIAC MI
300 AM EDT TUE JUN 02 2015

NOTE: "FAIR" INDICATES FEW OR NO CLOUDS BELOW 12,000 FEET WITH NO
SIGNIFICANT WEATHER AND/OR OBSTRUCTION TO VISIBILITY.

MIZ047>049-052>055-059>063-066>070-074>076-081>083-020800-
SOUTHEAST LOWER MICHIGAN

CITY           SKY/WX    TMP DP  RH WIND       PRES   REMARKS
ADRIAN         CLEAR     45  43  93 CALM      30.19F
ALMA           CLEAR     37  37  99 CALM      30.22F
ANN ARBOR      PTCLDY    42  41  96 NE3       30.20F
BAD AXE        CLEAR     35  34  93 CALM      30.22S
CARO           CLEAR     35  35  99 CALM      30.21F
DETROIT CITY   PTCLDY    49  38  65 N3        30.20F
DETROIT        MOCLDY    49  41  74 N3        30.20F
FLINT          CLEAR     42  37  82 CALM      30.22F
GROSSE ILE     PTCLDY    52  39  62 N6        30.18F
HILLSDALE      CLEAR     42  42 100 CALM      30.19F
HOWELL         CLEAR     42  40  93 CALM      30.20F

CITY           SKY/WX    TMP DP  RH WIND       PRES   REMARKS
JACKSON        CLEAR     43  41  93 CALM      30.20F
LAMBERTVILLE   CLEAR     46  43  87 CALM      30.19F
LANSING        CLEAR     42  38  85 CALM      30.22F
LAPEER         FAIR      38  37  98 CALM      30.21F
MASON          CLEAR     41  39  93 CALM      30.21F
MONROE         PTCLDY    48  45  87 N3        30.18F
MT. CLEMENS    CLEAR     46  40  80 CALM      30.18F
PONTIAC        PTCLDY    46  37  71 N5        30.19F
PORT HOPE        N/A     44  38  79 CALM      30.20F
PORT HURON     CLEAR     41  39  93 CALM      30.20F
TRI CITIES     CLEAR     44  39  82 CALM      30.22F
MIDLAND        FAIR      34  33  96 CALM      30.22S
TROY           CLEAR     49  37  64 CALM      30.22S
SAGINAW HB     CLEAR     41  41 100 CALM      30.21F
$$
MIZ043>046-050>051-056>058-064>065-071>073-077>080-020800-
SOUTHWEST LOWER MICHIGAN

CITY           SKY/WX    TMP DP  RH WIND       PRES   REMARKS
BATTLE CREEK   CLEAR     49  41  74 E3        30.20F
BENTON HARBOR  CLEAR     45  43  93 CALM      30.17F
BIG RAPIDS     CLEAR     41  36  81 CALM      30.21S
COLDWATER      CLEAR     44  43  97 CALM      30.18F
FREMONT        FAIR      47  33  57 E3        30.21S
HOLLAND        CLEAR     48  39  71 E5        30.20S
GRAND RAPIDS   CLEAR     44  37  76 NE3       30.21S
IONIA          FAIR      43  37  77 E5        30.20F
KALAMAZOO      CLEAR     47  42  83 CALM      30.19F
LUDINGTON      CLEAR     48  39  69 E3        30.21S
MARSHALL       CLEAR     43  42  95 CALM      30.19F
MOUNT PLEASANT FOG       38  37  95 CALM      30.21F VSB 1
MUSKEGON       CLEAR     46  38  73 E5        30.20F
SOUTH HAVEN    CLEAR     48  42  81 CALM      30.19S
$$
MIZ016>042-020800-
NORTHERN LOWER MICHIGAN

CITY           SKY/WX    TMP DP  RH WIND       PRES   REMARKS
ALPENA         CLEAR     38  35  89 CALM      30.23S
BEAVER ISLAND  CLEAR     38  37  97 CALM      30.23S
BELLAIRE       CLEAR     38  37  94 CALM      30.22F
CADILLAC       CLEAR     38  37  94 CALM      30.21S
CHARLEVOIX     CLEAR     43  36  77 CALM      30.25S
FRANKFORT      CLEAR     44  35  72 CALM      30.21S
GAYLORD        CLEAR     37  34  89 CALM      30.22F
GRAYLING       CLEAR     33  32  96 CALM      30.23S
HARBOR SPRINGS CLEAR     39  34  83 NE3       30.22F
HOUGHTON LAKE  CLEAR     36  35  96 CALM      30.23S FOG
MANISTEE       CLEAR     43  36  75 E5        30.21F
OSCODA         CLEAR     38  34  85 CALM      30.22S
PELLSTON       CLEAR     34  32  92 CALM      30.24S
ROGERS CITY    CLEAR     36  34  92 CALM      30.24S
TRAVERSE CITY  CLEAR     44  39  82 CALM      30.21F
$$
MIZ007>008-015-020800-
EASTERN UPPER MICHIGAN

CITY           SKY/WX    TMP DP  RH WIND       PRES   REMARKS
KINROSS        CLEAR     45  37  76 CALM      30.23S
MACKINAC ISLAN CLEAR     45  35  67 E3        30.22S
NEWBERRY       CLEAR     41  37  85 CALM      30.22S
S. S. MARIE    CLEAR     40  33  76 CALM      30.22S
MUNISING         N/A     41  35  79 S7        30.20S
$$
MIZ004>006-011>014-085-020800-
CENTRAL UPPER MICHIGAN

CITY           SKY/WX    TMP DP  RH WIND       PRES   REMARKS
MANISTIQUE     CLEAR     34  31  90 CALM      30.22S
ESCANABA       CLEAR     36  32  87 CALM      30.21S
MENOMINEE      CLEAR     39  36  87 CALM      30.20S
SAWYER-GWINN   CLEAR     40  32  74 CALM      30.21S
$$
MIZ001>003-009>011-084-020800-
WESTERN UPPER MICHIGAN

CITY           SKY/WX    TMP DP  RH WIND       PRES   REMARKS
IRON MOUNTAIN  CLEAR     37  34  89 CALM      30.20R
HOUGHTON       CLEAR     41  32  70 VRB3      30.17S
COPPER HARBOR    N/A     45  32  60 W12G18    30.16S
IRONWOOD       CLEAR     54  36  50 S10       30.13F
$$

ABBREVIATIONS USED IN REMARKS
   TC - TEMPERATURE IN CELSIUS
  WCI - WIND CHILL INDEX
   HX - HEAT INDEX
  VSB - VISIBILITY




USA.gov is the U.S. government's official web portal to all federal, state and local government web resources and services.